Location: D�derode
(51.8092°N, 10.1065°E)
Time: 20:51:43
(UTC+00:00)

H-2A R/B - Visible Passes

Search period start: 13 April 2021 00:00
Search period end: 23 April 2021 00:00
Orbit: 732 x 837 km, 98.2° (Epoch: 13 April)

Date Brightness Start Highest point End Pass type
(mag) Time Alt. Az. Time Alt. Az. Time Alt. Az.
14 Apr 5.1 19:39:36 10° WSW 19:41:06 11° W 19:42:37 10° WNW visible
15 Apr 4.7 19:05:58 10° SW 19:09:40 20° W 19:13:20 10° NW visible
18 Apr 4.7 19:12:52 10° SW 19:16:12 18° W 19:19:32 10° NW visible
21 Apr 4.8 19:19:50 10° WSW 19:22:45 15° W 19:25:39 10° NW visible
